Wind_Speed
32 32 32 32 31 29 29 29 30 29 29 27 26 25 24 23 22 21 20 20 22 23 23 22 21 21 21 20 20 19 19 19 19 19 19 19 19 18 18 18 18 18 17 16
33 32 33 33 32 31 31 31 31 31 30 28 28 27 25 25 24 24 24 24 24 24 24 24 23 23 23 22 23 21 21 21 20 21 20 21 20 20 19 19 19 18 19 18
33 33 34 35 33 32 32 30 30 30 30 30 30 30 27 26 26 27 27 26 26 25 26 25 24 24 24 24 24 23 23 23 23 23 22 22 22 22 21 21 20 19 19 19
34 34 36 35 34 33 32 32 31 30 30 30 30 30 30 30 30 29 28 28 27 27 26 25 25 25 26 27 26 25 25 25 25 25 25 24 24 23 22 21 21 21 21 22
33 33 35 35 36 36 35 33 33 33 32 32 31 33 33 32 30 29 27 27 27 27 27 26 25 26 26 27 27 26 26 26 26 27 26 25 24 25 24 23 23 23 24 24
32 33 34 34 35 36 37 37 36 35 34 33 32 32 32 32 32 31 30 30 30 29 28 28 28 27 27 28 28 28 28 28 28 28 27 27 26 26 25 25 25 25 26 26
31 33 35 34 35 35 37 38 37 36 36 34 33 33 33 34 34 34 32 32 32 32 31 31 31 30 30 29 29 29 29 29 29 28 28 27 27 27 27 27 26 26 26 27
32 33 35 35 35 36 36 36 36 37 36 34 34 34 35 36 36 36 35 35 35 34 34 34 33 32 32 31 30 30 31 30 30 29 29 29 29 29 29 29 28 28 29 29
33 34 34 34 34 35 35 36 36 37 36 37 36 36 37 38 38 38 37 36 36 37 36 36 35 34 33 33 32 31 31 31 30 30 31 31 32 32 31 31 31 31 31 31
32 33 33 33 34 34 35 36 37 38 37 37 37 38 38 38 38 38 38 38 38 38 38 37 37 35 35 34 33 33 33 32 32 32 33 34 34 33 34 34 35 35 34 34
32 31 31 31 33 34 34 35 37 37 38 37 37 37 38 38 38 37 38 37 37 37 37 37 37 36 36 36 36 35 35 34 34 34 35 35 36 35 35 35 36 36 35 35
33 33 33 34 33 34 34 34 35 36 36 37 38 37 37 37 36 36 37 37 36 36 36 36 36 37 38 38 37 37 36 36 36 37 38 38 38 37 37 37 37 36 36 36
32 33 34 35 36 36 35 35 34 35 36 37 36 36 37 36 36 36 36 36 36 37 37 37 37 38 38 38 38 38 38 37 37 38 38 37 37 38 38 38 37 37 36 37
32 32 33 34 34 34 33 33 33 34 35 35 34 35 35 35 35 35 35 36 36 37 37 36 36 37 37 38 37 36 37 37 37 37 37 37 37 37 37 37 37 37 36 36
32 32 31 32 33 33 32 32 33 34 35 35 34 33 33 33 33 33 34 35 35 35 35 35 36 35 36 36 36 36 36 37 37 37 36 36 36 36 36 36 36 36 36 36
30 30 30 30 31 32 32 32 33 34 34 34 33 33 33 33 33 32 33 33 34 34 34 34 35 35 35 35 34 34 35 35 35 34 34 35 36 36 36 35 35 35 35 35
27 29 29 29 29 30 30 31 32 34 34 32 32 31 32 32 32 32 32 32 32 32 32 32 33 33 32 31 31 32 32 32 32 33 34 33 34 34 33 33 33 33 33 33
26 26 27 27 27 27 28 29 29 30 30 29 29 30 30 30 31 31 31 31 31 31 31 30 29 29 29 29 29 30 31 31 31 31 31 30 30 30 30 29 30 30 31 31
24 24 24 26 27 27 27 26 26 26 26 26 27 28 28 28 29 29 29 29 29 29 28 27 27 27 27 28 28 29 29 29 29 28 28 28 28 28 28 28 28 30 30 30
21 22 22 23 25 26 26 25 24 24 24 24 24 25 25 26 26 27 26 26 26 26 26 25 25 25 25 25 25 26 27 27 26 26 26 26 27 28 27 27 27 28 28 28
19 19 20 21 23 23 23 23 23 22 22 23 23 23 23 23 23 24 24 24 24 24 24 24 24 24 24 24 24 24 24 25 26 26 26 26 27 27 27 27 27 27 27 27
18 18 19 19 20 21 21 23 23 22 22 22 22 22 21 21 21 22 22 23 23 23 23 23 23 24 23 22 22 22 22 23 24 25 25 25 25 25 25 25 25 25 25 24
16 17 18 18 19 19 19 20 20 20 20 21 21 20 20 20 20 20 20 20 20 20 20 20 20 20 20 20 19 19 20 21 22 22 22 22 23 23 23 23 23 23 23 23
14 15 15 16 16 16 16 16 16 16 17 17 18 19 19 18 18 18 19 19 19 19 18 18 18 17 17 18 19 19 20 20 20 20 20 20 21 22 22 22 22 23 23 23
12 12 13 13 13 13 13 13 12 12 12 13 14 14 14 15 15 15 15 15 16 16 16 16 16 17 17 17 17 17 17 17 17 18 18 18 18 19 19 20 21 21 21 21
11 11 12 12 11 11 10 9 9 10 11 11 10 10 11 11 12 12 13 13 13 13 13 14 15 15 15 15 14 14 14 15 16 16 17 17 17 18 18 19 20 20 21 22
9 9 9 9 9 8 8 8 8 8 8 8 8 8 8 9 9 10 11 11 11 11 12 12 12 12 12 12 12 13 14 14 15 16 17 17 18 18 19 19 20 21 21 22
Wind_Direction
232 230 229 230 229 231 235 239 241 243 247 251 255 259 263 266 267 269 273 276 280 284 286 288 288 288 286 284 286 283 286 286 286 286 284 283 282 281 282 280 282 282 286 288
235 235 233 232 231 231 234 237 240 244 247 250 253 257 261 265 268 271 274 276 279 282 283 285 286 287 285 286 285 283 285 285 283 285 283 279 281 283 284 284 284 282 283 286
236 235 234 234 233 234 236 239 242 245 247 249 254 256 261 264 265 268 274 276 277 279 282 284 283 284 285 286 286 284 287 287 286 285 286 280 279 282 282 283 284 282 281 281
238 236 237 235 234 237 239 238 240 245 248 249 252 257 261 264 266 268 271 272 275 277 279 281 283 282 283 283 282 283 286 288 288 287 283 278 275 277 278 280 282 282 281 279
238 237 237 235 236 238 239 239 241 243 248 250 252 256 261 265 268 269 271 273 275 275 278 279 280 280 280 281 282 282 283 284 285 285 283 278 275 275 275 276 278 280 282 283
238 236 235 236 237 240 241 243 243 245 249 253 252 255 259 262 267 269 271 273 275 277 278 278 279 279 280 280 280 280 281 282 284 284 285 280 277 278 277 278 278 278 280 282
239 239 238 238 238 240 242 245 247 248 250 253 255 257 260 262 265 268 270 271 273 275 276 277 278 278 279 280 279 279 281 282 282 283 283 280 277 277 278 279 280 282 282 283
240 241 241 240 239 240 245 249 250 249 251 254 256 258 261 263 265 268 269 270 271 273 275 277 277 277 278 278 278 278 279 279 280 280 280 279 276 275 276 278 280 282 282 282
243 245 246 244 243 242 244 247 249 249 251 255 256 258 260 264 265 267 268 269 271 273 274 275 275 275 275 275 276 277 277 278 277 277 278 278 279 276 275 277 280 279 279 280
244 246 247 245 245 247 247 248 251 252 254 254 257 260 261 262 263 266 268 270 271 272 273 273 273 273 273 274 275 276 276 277 276 275 276 277 279 276 276 278 280 278 277 277
248 250 250 249 250 251 254 255 255 255 256 258 259 260 261 263 265 267 268 269 270 271 271 272 273 272 273 274 274 275 275 275 275 274 275 277 278 278 277 279 280 280 280 280
248 250 251 253 253 253 256 258 258 258 260 260 260 260 263 264 265 267 268 269 270 270 272 272 272 273 273 272 273 273 273 273 273 274 275 276 276 276 277 279 281 282 282 282
248 249 251 253 254 255 257 258 259 260 262 263 262 263 265 266 266 267 268 270 270 272 272 272 272 274 274 275 274 273 273 273 273 274 275 276 276 276 277 278 279 280 280 281
249 251 252 254 256 257 257 259 261 262 265 265 265 267 268 268 268 267 269 271 272 273 273 273 274 275 274 275 276 275 274 273 274 275 275 275 277 278 278 277 277 278 279 280
251 254 256 257 259 261 263 263 264 265 267 268 268 267 267 267 268 268 269 272 273 274 275 275 275 275 274 274 275 275 275 274 274 275 276 276 276 277 278 278 278 279 280 281
252 256 259 262 263 264 265 266 267 268 270 265 265 267 269 268 268 268 269 271 273 273 275 276 275 275 275 273 272 273 274 274 275 276 277 277 277 277 278 278 278 279 281 283
253 256 259 263 264 267 267 267 269 268 269 266 264 266 267 267 267 268 268 270 273 274 275 276 276 275 273 272 271 271 273 274 274 275 278 278 277 278 279 281 281 281 282 283
257 259 262 263 264 267 269 270 271 271 270 267 266 267 268 269 269 269 269 270 272 274 275 276 276 274 273 271 271 272 273 275 276 277 277 276 278 280 281 282 282 283 284 285
261 263 265 267 269 269 271 272 271 270 270 272 270 268 269 269 269 269 270 271 272 273 275 275 275 275 274 272 272 272 273 274 275 275 277 279 281 282 283 283 284 285 284 286
263 265 267 270 271 272 274 273 270 271 272 273 273 273 271 269 268 269 270 271 272 272 273 273 274 274 276 275 272 270 271 272 274 277 279 281 282 282 283 283 284 285 286 287
266 268 270 273 273 275 275 273 272 272 272 272 274 275 273 271 268 267 268 270 271 272 273 275 275 275 277 276 276 277 274 274 275 277 279 281 283 284 285 285 285 285 285 287
270 273 275 276 277 279 278 277 275 273 270 270 273 275 274 272 269 266 267 270 272 271 273 275 276 277 279 279 279 280 279 278 278 279 280 280 281 283 284 286 286 286 287 288
274 278 280 279 280 280 281 279 277 274 270 269 270 271 272 272 270 268 269 270 271 271 273 276 277 279 281 281 282 281 281 280 280 281 281 281 283 284 286 287 288 289 289 289
279 283 283 282 283 284 283 282 281 277 273 271 268 267 267 269 271 270 269 269 270 272 275 278 279 280 282 283 283 283 284 282 281 281 283 285 286 287 287 289 289 290 292 292
282 287 290 290 288 288 289 286 284 281 279 278 272 267 266 268 271 271 270 270 272 274 276 278 280 281 283 285 286 284 283 282 281 283 284 287 289 290 291 291 292 293 294 296
287 289 294 297 296 296 298 297 292 287 281 277 271 268 267 268 268 268 269 271 274 277 279 280 281 282 283 285 284 283 284 287 288 288 288 290 291 293 295 296 296 296 296 296
289 289 292 299 304 307 304 302 297 291 288 280 271 269 268 268 271 273 273 274 276 279 282 285 288 289 289 287 288 289 290 291 291 292 294 295 295 296 297 297 298 298 298 297
Height
5854 5858 5861 5863 5866 5868 5869 5871 5873 5874 5876 5877 5879 5879 5880 5881 5882 5883 5883 5884 5884 5884 5883 5882 5881 5880 5880 5878 5878 5877 5876 5874 5873 5872 5870 5868 5865 5864 5863 5862 5862 5862 5861 5860
5848 5850 5853 5856 5859 5861 5863 5864 5866 5868 5870 5871 5872 5874 5875 5876 5877 5877 5878 5878 5878 5877 5876 5876 5875 5874 5873 5872 5871 5870 5869 5867 5865 5864 5863 5862 5860 5858 5857 5857 5856 5856 5856 5854
5841 5843 5845 5848 5852 5855 5856 5858 5860 5862 5864 5866 5867 5868 5869 5870 5871 5871 5872 5872 5872 5871 5871 5870 5869 5868 5866 5865 5864 5863 5862 5860 5859 5857 5856 5855 5854 5852 5852 5851 5850 5850 5849 5848
5833 5837 5838 5843 5845 5847 5849 5851 5853 5855 5857 5859 5861 5862 5863 5863 5864 5864 5864 5865 5864 5864 5864 5863 5862 5861 5860 5859 5857 5856 5855 5853 5852 5850 5848 5847 5846 5846 5846 5845 5844 5843 5842 5842
5826 5828 5830 5835 5837 5839 5842 5844 5846 5848 5850 5852 5854 5855 5855 5856 5857 5857 5857 5857 5857 5857 5857 5856 5856 5855 5853 5852 5850 5849 5848 5846 5844 5843 5841 5840 5839 5839 5838 5838 5837 5836 5836 5835
5818 5820 5823 5828 5829 5831 5835 5836 5839 5841 5843 5844 5846 5847 5849 5848 5849 5849 5849 5849 5848 5848 5848 5848 5848 5847 5846 5845 5843 5841 5840 5838 5837 5835 5834 5832 5832 5831 5830 5829 5829 5829 5828 5827
5810 5812 5815 5819 5822 5824 5827 5829 5832 5833 5834 5836 5838 5839 5841 5840 5840 5840 5840 5840 5840 5839 5839 5838 5838 5838 5837 5836 5835 5833 5831 5830 5829 5827 5826 5825 5824 5823 5822 5821 5821 5820 5819 5818
5803 5805 5809 5811 5814 5817 5819 5821 5822 5824 5825 5826 5828 5830 5831 5831 5831 5831 5831 5831 5831 5831 5830 5829 5828 5828 5828 5827 5826 5824 5823 5821 5820 5819 5818 5817 5816 5814 5813 5812 5812 5812 5811 5810
5796 5799 5800 5803 5806 5808 5810 5812 5813 5815 5816 5818 5819 5820 5821 5821 5821 5821 5821 5821 5821 5820 5820 5819 5818 5817 5817 5817 5816 5815 5813 5812 5811 5810 5809 5808 5807 5805 5804 5804 5803 5802 5802 5801
5788 5790 5792 5794 5797 5799 5801 5803 5805 5806 5807 5808 5809 5810 5810 5810 5810 5810 5811 5811 5810 5810 5809 5808 5807 5806 5806 5806 5805 5805 5804 5803 5802 5801 5799 5798 5797 5796 5795 5794 5793 5792 5791 5791
5780 5782 5784 5786 5788 5790 5791 5793 5795 5796 5797 5797 5797 5799 5799 5799 5799 5799 5799 5799 5799 5798 5798 5797 5796 5795 5795 5795 5794 5793 5793 5792 5792 5791 5789 5788 5787 5785 5784 5784 5783 5782 5781 5780
5772 5774 5776 5778 5779 5780 5782 5783 5784 5785 5786 5787 5787 5788 5788 5788 5788 5788 5788 5788 5787 5787 5787 5786 5785 5784 5783 5782 5782 5781 5781 5781 5781 5780 5778 5776 5775 5775 5774 5774 5772 5771 5770 5769
5763 5765 5767 5768 5770 5771 5772 5773 5774 5774 5775 5776 5776 5776 5777 5778 5777 5777 5777 5776 5776 5776 5775 5775 5774 5773 5772 5770 5770 5769 5769 5769 5769 5768 5767 5765 5764 5764 5764 5763 5762 5761 5759 5758
5754 5756 5758 5759 5761 5761 5762 5762 5763 5764 5765 5765 5765 5765 5765 5766 5766 5765 5765 5765 5765 5764 5764 5763 5762 5761 5760 5759 5758 5758 5758 5758 5757 5756 5755 5755 5754 5753 5752 5752 5751 5749 5748 5747
5747 5748 5750 5751 5752 5753 5753 5754 5754 5755 5755 5754 5755 5754 5754 5754 5754 5754 5754 5754 5754 5753 5752 5751 5750 5749 5748 5748 5747 5747 5746 5746 5746 5745 5744 5743 5743 5742 5741 5740 5739 5738 5737 5736
5739 5740 5742 5742 5743 5744 5744 5744 5745 5745 5743 5742 5743 5743 5743 5743 5744 5744 5743 5743 5743 5742 5741 5740 5739 5738 5737 5737 5736 5736 5736 5735 5735 5735 5734 5733 5732 5731 5730 5728 5728 5727 5726 5724
5732 5733 5734 5734 5735 5735 5735 5734 5734 5733 5733 5733 5733 5733 5733 5733 5733 5733 5733 5733 5733 5732 5731 5730 5729 5727 5727 5726 5725 5725 5725 5725 5725 5724 5723 5722 5722 5721 5719 5719 5718 5716 5715 5713
5723 5724 5725 5726 5726 5726 5726 5725 5724 5724 5723 5722 5722 5722 5722 5722 5723 5723 5723 5723 5723 5722 5721 5720 5719 5718 5717 5717 5716 5716 5716 5716 5715 5715 5714 5713 5712 5711 5710 5709 5708 5706 5705 5703
5716 5717 5718 5718 5718 5717 5717 5716 5715 5715 5714 5713 5713 5713 5713 5713 5713 5713 5713 5713 5713 5713 5712 5711 5710 5709 5708 5708 5708 5707 5707 5707 5707 5706 5705 5705 5704 5703 5701 5700 5699 5697 5696 5694
5709 5710 5710 5710 5709 5708 5708 5707 5706 5706 5705 5705 5705 5704 5704 5704 5704 5704 5704 5705 5705 5705 5704 5703 5702 5701 5700 5699 5699 5698 5699 5699 5698 5698 5697 5696 5695 5694 5693 5692 5691 5689 5688 5686
5702 5703 5703 5702 5701 5700 5699 5699 5698 5698 5697 5697 5697 5697 5696 5696 5696 5696 5696 5697 5697 5697 5696 5696 5695 5694 5693 5692 5691 5690 5690 5690 5690 5690 5689 5688 5687 5686 5685 5684 5683 5681 5679 5678
5696 5696 5695 5694 5693 5693 5692 5690 5690 5689 5689 5689 5689 5689 5689 5689 5689 5689 5689 5690 5690 5689 5689 5688 5688 5687 5686 5685 5684 5684 5683 5683 5683 5682 5681 5681 5680 5679 5678 5676 5675 5673 5671 5670
5690 5689 5689 5688 5687 5685 5684 5682 5681 5681 5681 5681 5681 5682 5682 5682 5682 5682 5683 5683 5683 5683 5683 5682 5682 5682 5681 5679 5679 5678 5677 5677 5676 5675 5675 5674 5673 5671 5670 5669 5667 5665 5664 5662
5685 5684 5683 5682 5681 5679 5677 5676 5675 5674 5674 5674 5675 5675 5676 5676 5676 5676 5676 5677 5677 5677 5677 5677 5676 5676 5675 5674 5673 5672 5671 5671 5670 5669 5668 5667 5666 5665 5663 5661 5660 5658 5657 5655
5681 5680 5679 5677 5676 5674 5672 5671 5670 5669 5669 5669 5669 5670 5670 5670 5671 5671 5671 5672 5672 5672 5671 5671 5670 5670 5669 5668 5667 5666 5666 5665 5664 5663 5663 5661 5660 5658 5657 5655 5653 5651 5650 5648
5677 5676 5675 5674 5672 5671 5669 5668 5667 5666 5666 5666 5666 5666 5667 5667 5667 5667 5667 5667 5668 5667 5667 5666 5666 5665 5664 5663 5663 5662 5661 5660 5659 5659 5657 5656 5654 5653 5651 5649 5647 5645 5644 5642
5674 5674 5673 5671 5670 5668 5667 5666 5665 5664 5664 5664 5664 5664 5664 5664 5664 5665 5664 5664 5664 5664 5663 5662 5661 5661 5660 5659 5658 5658 5657 5656 5655 5653 5652 5650 5649 5647 5645 5643 5641 5639 5637 5635